Flag for Greece Weather past 2 weeks in Nea Smyrni, Greece

Now
81 °F

Passing clouds.


Feels Like: 80 °F
Forecast: 71 / 84 °F
Wind: 23 mph from North

Location: Eleftherios Venizelos International Airport

Current Time: Jul 2, 2015 at 11:59:15 AM

Latest Report: Jul 2, 2015 at 11:20 AM


Visibility: N/A

Pressure: 30.09 "Hg

Humidity: 30%

Dew point: 46 °F

Location of Nea SmyrniLocation

Historic Weather in Nea Smyrni — Graph

°F

Nea Smyrni temperature yesterday

Maximum temperature yesterday: 82 °F (at 2:50 PM)
Minimum temperature yesterday: 63 °F (at 5:20 AM)
Average temperature yesterday: 73 °F

Past Weeks' High & Low Weather Summary

 TemperatureHumidityPressure
High91 °F (Jun 17, 2:20 PM)88% (Jun 19, 12:20 AM)30.09 "Hg (Jun 19, 12:20 AM)
Low57 °F (Jun 24, 5:50 AM)29% (Jun 17, 11:20 AM)29.65 "Hg (Jun 18, 12:20 PM)
Average73 °F57%29.90 "Hg
* Reported Jun 17 10:20 AM — Jul 2 10:50 AM, Nea Smyrni, Weather by CustomWeather, © 2015

Note: Actual official high and low records may vary slightly from our data, if they occured in-between our weather recording intervals... More about our weather records

Advertising

Nea Smyrni weather history for previous 24 hours

 ConditionsComfort  
Time TempWeatherWind HumidityBarometerVisibility
10:50 AM
Thu, Jul 2
81 °FPassing clouds.23 mph30%30.09 "HgN/A
10:20 AM81 °FPassing clouds.12 mph32%30.09 "HgN/A
9:50 AM79 °FPassing clouds.13 mph34%30.07 "HgN/A
9:20 AM79 °FPassing clouds.17 mph37%30.07 "HgN/A
8:50 AM77 °FPassing clouds.14 mph39%30.07 "HgN/A
8:20 AM75 °FPassing clouds.13 mph47%30.07 "HgN/A
7:50 AM73 °FPassing clouds.15 mph50%30.07 "HgN/A
7:20 AM73 °FPassing clouds.15 mph50%30.07 "HgN/A
6:50 AM72 °FClear.13 mph57%30.07 "Hg10 mi
6:20 AM72 °FPassing clouds.10 mph57%30.07 "HgN/A
5:50 AM72 °FClear.12 mph57%30.07 "Hg10 mi
5:20 AM72 °FClear.12 mph57%30.07 "Hg10 mi
4:50 AM72 °FClear.13 mph57%30.07 "Hg10 mi
4:20 AM72 °FClear.12 mph53%30.07 "Hg10 mi
3:50 AM72 °FPassing clouds.8 mph53%30.07 "HgN/A
3:20 AM73 °FPassing clouds.5 mph50%30.07 "HgN/A
2:50 AM73 °FPassing clouds.6 mph50%30.07 "HgN/A
2:20 AM73 °FPassing clouds.6 mph47%30.07 "HgN/A
1:50 AM73 °FPassing clouds.8 mph47%30.07 "HgN/A
1:20 AM73 °FPassing clouds.10 mph44%30.07 "HgN/A
12:50 AM72 °FPassing clouds.7 mph50%30.07 "HgN/A
11:50 PM
Wed, Jul 1
72 °FClear.8 mph53%30.07 "Hg10 mi
11:20 PM73 °FPassing clouds.10 mph47%30.09 "HgN/A
10:50 PM73 °FPassing clouds.8 mph47%30.09 "HgN/A
10:20 PM75 °FPassing clouds.7 mph44%30.09 "HgN/A
9:50 PM75 °FPassing clouds.6 mph44%30.09 "HgN/A
9:20 PM75 °FPassing clouds.7 mph44%30.07 "HgN/A
8:50 PM75 °FPassing clouds.7 mph44%30.07 "HgN/A
8:20 PM75 °FPassing clouds.12 mph47%30.07 "HgN/A
7:50 PM77 °FPassing clouds.14 mph44%30.07 "HgN/A
7:20 PM77 °FPassing clouds.13 mph42%30.04 "HgN/A
6:50 PM77 °FPassing clouds.20 mph42%30.04 "HgN/A
6:20 PM77 °FScattered clouds.20 mph42%30.04 "HgN/A
5:50 PM77 °FScattered clouds.22 mph44%30.04 "HgN/A
5:20 PM77 °FScattered clouds.22 mph44%30.04 "HgN/A
4:50 PM81 °FScattered clouds.22 mph42%30.04 "HgN/A
4:20 PM82 °FPassing clouds.14 mph42%30.04 "HgN/A
3:50 PM82 °FPassing clouds.14 mph42%30.04 "HgN/A
3:20 PM82 °FPassing clouds.16 mph42%30.04 "HgN/A
2:50 PM82 °FPassing clouds.17 mph42%30.04 "HgN/A
2:20 PM81 °FPassing clouds.18 mph45%30.07 "HgN/A
1:50 PM81 °FPassing clouds.18 mph45%30.07 "HgN/A
1:20 PM79 °FPassing clouds.15 mph48%30.07 "HgN/A
12:50 PM79 °FPassing clouds.18 mph48%30.07 "HgN/A
12:20 PM79 °FPassing clouds.15 mph48%30.07 "HgN/A
11:50 AM79 °FPassing clouds.14 mph48%30.07 "HgN/A
11:20 AM77 °FPassing clouds.15 mph51%30.07 "HgN/A
Weather by CustomWeather, © 2015

See weather overviewHow to use our weather pages